Time,TemperatureF,DewpointF,PressureIn,WindDirection,WindDirectionDegrees,WindSpeedMPH,WindSpeedGustMPH,Humidity,HourlyPrecipIn,Conditions,Clouds,dailyrainin,SoftwareType,DateUTC
2013-01-04 00:00:00,34.3,31.2,30.34,NE,45,0.0,0.0,88,0.00,CLR,,0.26,WeatherDisplay:10.37,2013-01-04 06:00:00,
2013-01-04 00:05:00,34.3,31.2,30.34,NE,45,0.0,0.0,88,0.00,RA,,0.00,WeatherDisplay:10.37,2013-01-04 06:05:00,
2013-01-04 00:10:00,34.3,30.9,30.34,NE,45,0.0,0.0,87,0.00,RA,,0.00,WeatherDisplay:10.37,2013-01-04 06:10:00,
2013-01-04 00:15:00,34.5,31.3,30.34,NE,45,0.0,0.0,88,0.00,CLR,,0.00,WeatherDisplay:10.37,2013-01-04 06:15:00,
2013-01-04 00:20:00,34.7,31.2,30.34,NE,45,2.7,5.3,87,0.00,CLR,,0.00,WeatherDisplay:10.37,2013-01-04 06:20:00,
2013-01-04 00:25:00,34.7,31.2,30.33,NE,45,0.0,0.0,87,0.00,CLR,,0.00,WeatherDisplay:10.37,2013-01-04 06:25:00,
2013-01-04 00:30:00,34.9,31.1,30.33,NE,45,2.3,2.9,86,0.00,CLR,,0.00,WeatherDisplay:10.37,2013-01-04 06:30:00,
2013-01-04 00:35:00,34.9,31.1,30.33,NE,45,0.0,0.0,86,0.00,CLR,,0.00,WeatherDisplay:10.37,2013-01-04 06:35:00,
2013-01-04 00:40:00,34.9,30.8,30.33,NE,45,0.0,0.0,85,0.00,CLR,,0.00,WeatherDisplay:10.37,2013-01-04 06:40:00,
2013-01-04 00:45:00,34.9,30.8,30.34,NE,45,3.5,3.5,85,0.00,CLR,,0.00,WeatherDisplay:10.37,2013-01-04 06:45:00,
2013-01-04 00:50:00,34.9,30.8,30.33,NE,45,2.3,0.0,85,0.00,CLR,,0.00,WeatherDisplay:10.37,2013-01-04 06:50:00,
2013-01-04 00:55:00,34.9,30.8,30.33,NE,45,0.0,0.0,85,0.00,CLR,,0.00,WeatherDisplay:10.37,2013-01-04 06:55:00,
2013-01-04 01:00:00,34.9,30.8,30.33,ENE,68,0.0,0.0,85,0.00,CLR,,0.00,WeatherDisplay:10.37,2013-01-04 07:00:00,
2013-01-04 01:05:00,34.3,30.3,30.33,ENE,68,0.0,0.0,85,0.00,CLR,,0.00,WeatherDisplay:10.37,2013-01-04 07:05:00,
2013-01-04 01:10:00,34.3,30.3,30.33,ENE,68,0.0,0.0,85,0.00,CLR,,0.00,WeatherDisplay:10.37,2013-01-04 07:10:00,
2013-01-04 01:15:00,34.3,30.3,30.34,ENE,68,0.0,0.0,85,0.00,CLR,,0.00,WeatherDisplay:10.37,2013-01-04 07:15:00,
2013-01-04 01:20:00,34.3,30.3,30.34,ENE,68,0.0,0.0,85,0.00,CLR,,0.00,WeatherDisplay:10.37,2013-01-04 07:20:00,
2013-01-04 01:25:00,34.3,30.3,30.34,ENE,68,0.0,0.0,85,0.00,CLR,,0.00,WeatherDisplay:10.37,2013-01-04 07:25:00,
2013-01-04 01:30:00,34.3,30.6,30.34,ENE,68,0.0,0.0,86,0.00,CLR,,0.00,WeatherDisplay:10.37,2013-01-04 07:30:00,
2013-01-04 01:35:00,34.3,30.6,30.34,ENE,68,0.0,0.0,86,0.00,CLR,,0.00,WeatherDisplay:10.37,2013-01-04 07:35:00,
2013-01-04 01:40:00,34.3,30.6,30.34,ENE,68,0.0,0.0,86,0.00,CLR,,0.00,WeatherDisplay:10.37,2013-01-04 07:40:00,
2013-01-04 01:45:00,34.3,30.6,30.35,ENE,68,0.0,0.0,86,0.00,CLR,,0.00,WeatherDisplay:10.37,2013-01-04 07:45:00,
2013-01-04 01:50:00,34.3,30.6,30.34,ENE,68,0.0,0.0,86,0.00,CLR,,0.00,WeatherDisplay:10.37,2013-01-04 07:50:00,
2013-01-04 01:55:00,34.3,30.6,30.34,ENE,68,0.0,0.0,86,0.00,CLR,,0.00,WeatherDisplay:10.37,2013-01-04 07:55:00,
2013-01-04 02:00:00,34.3,30.9,30.34,ENE,68,0.0,0.0,87,0.00,CLR,,0.00,WeatherDisplay:10.37,2013-01-04 08:00:00,
2013-01-04 02:05:00,34.3,30.9,30.34,ENE,68,0.0,0.0,87,0.00,CLR,,0.00,WeatherDisplay:10.37,2013-01-04 08:05:00,
2013-01-04 02:10:00,34.3,30.9,30.34,ENE,68,0.0,0.0,87,0.00,CLR,,0.00,WeatherDisplay:10.37,2013-01-04 08:10:00,
2013-01-04 02:15:00,34.0,30.5,30.34,ENE,68,0.0,0.0,87,0.00,CLR,,0.00,WeatherDisplay:10.37,2013-01-04 08:15:00,
2013-01-04 02:20:00,34.0,30.5,30.35,ENE,68,0.0,0.0,87,0.00,CLR,,0.00,WeatherDisplay:10.37,2013-01-04 08:20:00,
2013-01-04 02:25:00,34.0,30.5,30.34,ENE,68,0.0,0.0,87,0.00,CLR,,0.00,WeatherDisplay:10.37,2013-01-04 08:25:00,
2013-01-04 02:30:00,34.2,30.7,30.35,ENE,68,0.0,0.0,87,0.00,CLR,,0.00,WeatherDisplay:10.37,2013-01-04 08:30:00,
2013-01-04 02:35:00,34.2,30.7,30.34,ENE,68,0.0,0.0,87,0.00,CLR,,0.00,WeatherDisplay:10.37,2013-01-04 08:35:00,
2013-01-04 02:40:00,34.2,30.7,30.35,ENE,68,0.0,0.0,87,0.00,CLR,,0.00,WeatherDisplay:10.37,2013-01-04 08:40:00,
2013-01-04 02:45:00,34.3,30.9,30.34,ENE,68,0.0,0.0,87,0.00,CLR,,0.00,WeatherDisplay:10.37,2013-01-04 08:45:00,
2013-01-04 02:50:00,34.3,30.9,30.34,ENE,68,0.0,0.0,87,0.00,CLR,,0.00,WeatherDisplay:10.37,2013-01-04 08:50:00,
2013-01-04 02:55:00,34.3,30.9,30.34,ENE,68,0.0,0.0,87,0.00,CLR,,0.00,WeatherDisplay:10.37,2013-01-04 08:55:00,
2013-01-04 03:00:00,34.3,30.6,30.35,ENE,68,0.0,0.0,86,0.00,CLR,,0.00,WeatherDisplay:10.37,2013-01-04 09:00:00,
2013-01-04 03:05:00,34.3,30.6,30.35,ENE,68,0.0,0.0,86,0.00,CLR,,0.00,WeatherDisplay:10.37,2013-01-04 09:05:00,
2013-01-04 03:10:00,34.3,30.6,30.35,ENE,68,0.0,0.0,86,0.00,CLR,,0.00,WeatherDisplay:10.37,2013-01-04 09:10:00,
2013-01-04 03:15:00,34.3,30.3,30.34,ENE,68,0.0,0.0,85,0.00,CLR,,0.00,WeatherDisplay:10.37,2013-01-04 09:15:00,
2013-01-04 03:20:00,34.3,30.3,30.34,ENE,68,6.9,9.4,85,0.00,CLR,,0.00,WeatherDisplay:10.37,2013-01-04 09:20:00,
2013-01-04 03:25:00,34.3,30.3,30.33,ENE,68,8.1,8.1,85,0.00,CLR,,0.00,WeatherDisplay:10.37,2013-01-04 09:25:00,
2013-01-04 03:30:00,34.3,30.3,30.34,ENE,68,0.0,0.0,85,0.00,CLR,,0.00,WeatherDisplay:10.37,2013-01-04 09:30:00,
2013-01-04 03:35:00,34.3,30.3,30.34,ENE,68,0.0,0.0,85,0.00,CLR,,0.00,WeatherDisplay:10.37,2013-01-04 09:35:00,
2013-01-04 03:40:00,34.3,30.3,30.34,ENE,68,0.0,0.0,85,0.00,CLR,,0.00,WeatherDisplay:10.37,2013-01-04 09:40:00,
2013-01-04 03:45:00,34.3,30.3,30.34,ENE,68,2.3,3.3,85,0.00,CLR,,0.00,WeatherDisplay:10.37,2013-01-04 09:45:00,
2013-01-04 03:50:00,34.5,30.5,30.34,ENE,68,2.3,2.3,85,0.00,CLR,,0.00,WeatherDisplay:10.37,2013-01-04 09:50:00,
2013-01-04 03:55:00,34.5,30.5,30.34,ENE,68,0.0,0.0,85,0.00,CLR,,0.00,WeatherDisplay:10.37,2013-01-04 09:55:00,
2013-01-04 04:00:00,34.5,30.5,30.34,ENE,68,2.3,5.9,85,0.00,CLR,,0.00,WeatherDisplay:10.37,2013-01-04 10:00:00,
2013-01-04 04:05:00,34.5,30.5,30.34,ENE,68,2.3,5.9,85,0.00,CLR,,0.00,WeatherDisplay:10.37,2013-01-04 10:05:00,
2013-01-04 04:10:00,34.5,30.2,30.34,ENE,68,2.3,5.3,84,0.00,CLR,,0.00,WeatherDisplay:10.37,2013-01-04 10:10:00,
2013-01-04 04:15:00,34.5,30.2,30.34,ENE,68,1.1,2.5,84,0.00,CLR,,0.00,WeatherDisplay:10.37,2013-01-04 10:15:00,
2013-01-04 04:20:00,34.3,30.0,30.34,ENE,68,1.1,1.5,84,0.00,CLR,,0.00,WeatherDisplay:10.37,2013-01-04 10:20:00,
2013-01-04 04:25:00,34.3,30.0,30.34,ENE,68,2.3,2.3,84,0.00,CLR,,0.00,WeatherDisplay:10.37,2013-01-04 10:25:00,
2013-01-04 04:30:00,34.3,30.0,30.35,ENE,68,0.0,0.0,84,0.00,CLR,,0.00,WeatherDisplay:10.37,2013-01-04 10:30:00,
2013-01-04 04:35:00,34.3,30.0,30.34,ENE,68,2.3,3.0,84,0.00,CLR,,0.00,WeatherDisplay:10.37,2013-01-04 10:35:00,
2013-01-04 04:40:00,34.3,30.0,30.34,ENE,68,0.0,0.0,84,0.00,CLR,,0.00,WeatherDisplay:10.37,2013-01-04 10:40:00,
2013-01-04 04:45:00,34.3,30.0,30.35,ENE,68,0.0,0.0,84,0.00,CLR,,0.00,WeatherDisplay:10.37,2013-01-04 10:45:00,
2013-01-04 04:50:00,34.3,30.0,30.34,ENE,68,3.5,4.4,84,0.00,CLR,,0.00,WeatherDisplay:10.37,2013-01-04 10:50:00,
2013-01-04 04:55:00,34.3,29.7,30.34,ENE,68,5.8,10.5,83,0.00,CLR,,0.00,WeatherDisplay:10.37,2013-01-04 10:55:00,
2013-01-04 05:00:00,34.3,29.7,30.35,ENE,68,1.1,3.0,83,0.00,CLR,,0.00,WeatherDisplay:10.37,2013-01-04 11:00:00,
2013-01-04 05:05:00,34.3,29.7,30.35,ENE,68,1.1,3.0,83,0.00,CLR,,0.00,WeatherDisplay:10.37,2013-01-04 11:05:00,
2013-01-04 05:10:00,34.3,29.7,30.35,ENE,68,1.1,1.8,83,0.00,CLR,,0.00,WeatherDisplay:10.37,2013-01-04 11:10:00,
2013-01-04 05:15:00,34.3,29.7,30.35,ENE,68,3.5,3.8,83,0.00,CLR,,0.00,WeatherDisplay:10.37,2013-01-04 11:15:00,
2013-01-04 05:21:00,34.3,29.7,30.35,ENE,68,0.0,0.0,83,0.00,CLR,,0.00,WeatherDisplay:10.37,2013-01-04 11:21:00,
2013-01-04 05:26:00,34.3,29.7,30.35,ENE,68,0.0,0.0,83,0.00,CLR,,0.00,WeatherDisplay:10.37,2013-01-04 11:26:00,
2013-01-04 05:31:00,34.3,29.7,30.35,ENE,68,0.0,0.0,83,0.00,CLR,,0.00,WeatherDisplay:10.37,2013-01-04 11:31:00,
2013-01-04 05:36:00,34.3,29.7,30.35,ENE,68,3.5,6.1,83,0.00,CLR,,0.00,WeatherDisplay:10.37,2013-01-04 11:36:00,
2013-01-04 05:41:00,34.3,29.7,30.35,ENE,68,4.6,8.8,83,0.00,CLR,,0.00,WeatherDisplay:10.37,2013-01-04 11:41:00,
2013-01-04 05:46:00,34.5,29.9,30.35,ENE,68,1.1,1.8,83,0.00,CLR,,0.00,WeatherDisplay:10.37,2013-01-04 11:46:00,
2013-01-04 05:51:00,34.5,29.9,30.36,ENE,68,0.0,0.0,83,0.00,CLR,,0.00,WeatherDisplay:10.37,2013-01-04 11:51:00,
2013-01-04 05:56:00,34.3,29.7,30.37,ENE,68,0.0,0.0,83,0.00,CLR,,0.00,WeatherDisplay:10.37,2013-01-04 11:56:00,
2013-01-04 06:01:00,34.3,29.7,30.36,ENE,68,2.3,3.5,83,0.00,CLR,,0.00,WeatherDisplay:10.37,2013-01-04 12:01:00,
2013-01-04 06:06:00,34.3,29.7,30.36,ENE,68,2.3,3.5,83,0.00,CLR,,0.00,WeatherDisplay:10.37,2013-01-04 12:06:00,
2013-01-04 06:11:00,34.3,29.7,30.36,ENE,68,3.5,4.4,83,0.00,CLR,,0.00,WeatherDisplay:10.37,2013-01-04 12:11:00,
2013-01-04 06:16:00,34.7,30.1,30.36,ENE,68,0.0,0.0,83,0.00,CLR,,0.00,WeatherDisplay:10.37,2013-01-04 12:16:00,
2013-01-04 06:21:00,34.7,30.1,30.36,ENE,68,0.0,0.0,83,0.00,CLR,,0.00,WeatherDisplay:10.37,2013-01-04 12:21:00,
2013-01-04 06:26:00,34.7,29.8,30.36,ENE,68,5.8,7.7,82,0.00,CLR,,0.00,WeatherDisplay:10.37,2013-01-04 12:26:00,
2013-01-04 06:31:00,34.7,29.8,30.37,ENE,68,3.5,7.9,82,0.00,CLR,,0.00,WeatherDisplay:10.37,2013-01-04 12:31:00,
2013-01-04 06:36:00,34.9,29.9,30.38,ENE,68,1.1,2.5,82,0.00,CLR,,0.00,WeatherDisplay:10.37,2013-01-04 12:36:00,
2013-01-04 06:41:00,34.9,29.9,30.38,ENE,68,0.0,0.0,82,0.00,CLR,,0.00,WeatherDisplay:10.37,2013-01-04 12:41:00,
2013-01-04 06:46:00,34.9,29.9,30.38,ENE,68,3.5,7.9,82,0.00,CLR,,0.00,WeatherDisplay:10.37,2013-01-04 12:46:00,
2013-01-04 06:51:00,34.9,29.9,30.39,ENE,68,3.5,7.4,82,0.00,CLR,,0.00,WeatherDisplay:10.37,2013-01-04 12:51:00,
2013-01-04 06:56:00,34.9,29.9,30.39,ENE,68,2.7,3.9,82,0.00,CLR,,0.00,WeatherDisplay:10.37,2013-01-04 12:56:00,
2013-01-04 07:01:00,35.2,30.3,30.39,ENE,68,2.3,3.5,82,0.00,CLR,,0.00,WeatherDisplay:10.37,2013-01-04 13:01:00,
2013-01-04 07:06:00,34.9,29.9,30.39,ENE,68,3.5,5.7,82,0.00,CLR,,0.00,WeatherDisplay:10.37,2013-01-04 13:06:00,
2013-01-04 07:11:00,35.1,30.1,30.39,ENE,68,4.6,8.1,82,0.00,CLR,,0.00,WeatherDisplay:10.37,2013-01-04 13:11:00,
2013-01-04 07:16:00,35.2,30.3,30.39,ENE,68,11.5,23.7,82,0.00,CLR,,0.00,WeatherDisplay:10.37,2013-01-04 13:16:00,
2013-01-04 07:21:00,35.4,30.2,30.38,ENE,68,12.7,24.0,81,0.00,CLR,,0.00,WeatherDisplay:10.37,2013-01-04 13:21:00,
2013-01-04 07:26:00,35.6,30.3,30.38,ENE,68,11.9,23.7,81,0.00,CLR,,0.00,WeatherDisplay:10.37,2013-01-04 13:26:00,
2013-01-04 07:31:00,35.8,30.5,30.38,ENE,68,13.8,26.3,81,0.00,CLR,,0.00,WeatherDisplay:10.37,2013-01-04 13:31:00,
2013-01-04 07:36:00,35.8,30.5,30.38,ENE,68,6.9,14.3,81,0.00,CLR,,0.00,WeatherDisplay:10.37,2013-01-04 13:36:00,
2013-01-04 07:41:00,36.0,30.7,30.38,ENE,68,9.2,9.2,81,0.00,CLR,,0.00,WeatherDisplay:10.37,2013-01-04 13:41:00,
2013-01-04 07:46:00,36.1,30.9,30.39,ENE,68,6.9,13.1,81,0.00,CLR,,0.00,WeatherDisplay:10.37,2013-01-04 13:46:00,
2013-01-04 07:51:00,36.3,30.7,30.39,ENE,68,11.5,20.2,80,0.00,CLR,,0.00,WeatherDisplay:10.37,2013-01-04 13:51:00,
2013-01-04 07:56:00,36.3,30.7,30.39,ENE,68,12.7,21.4,80,0.00,CLR,,0.00,WeatherDisplay:10.37,2013-01-04 13:56:00,
2013-01-04 08:01:00,36.5,30.6,30.39,ENE,68,11.9,23.7,79,0.00,CLR,,0.00,WeatherDisplay:10.37,2013-01-04 14:01:00,
2013-01-04 08:06:00,36.7,30.8,30.39,ENE,68,11.5,18.8,79,0.00,CLR,,0.00,WeatherDisplay:10.37,2013-01-04 14:06:00,
2013-01-04 08:11:00,37.0,31.1,30.40,ENE,68,11.5,16.4,79,0.00,CLR,,0.00,WeatherDisplay:10.37,2013-01-04 14:11:00,
2013-01-04 08:16:00,37.2,31.3,30.41,East,90,5.8,12.3,79,0.00,CLR,,0.00,WeatherDisplay:10.37,2013-01-04 14:16:00,
2013-01-04 08:21:00,37.6,31.3,30.42,ENE,68,4.6,8.8,78,0.00,CLR,,0.00,WeatherDisplay:10.37,2013-01-04 14:21:00,
2013-01-04 08:26:00,37.6,31.3,30.42,ENE,68,8.1,9.3,78,0.00,CLR,,0.00,WeatherDisplay:10.37,2013-01-04 14:26:00,
2013-01-04 08:31:00,37.9,31.7,30.41,ENE,68,6.9,13.1,78,0.00,CLR,,0.00,WeatherDisplay:10.37,2013-01-04 14:31:00,
2013-01-04 08:36:00,38.3,32.0,30.42,ENE,68,11.5,17.7,78,0.00,CLR,,0.00,WeatherDisplay:10.37,2013-01-04 14:36:00,
2013-01-04 08:41:00,38.5,31.9,30.42,ENE,68,8.1,16.6,77,0.00,CLR,,0.00,WeatherDisplay:10.37,2013-01-04 14:41:00,
2013-01-04 08:46:00,38.5,31.9,30.42,East,90,6.9,13.1,77,0.00,CLR,,0.00,WeatherDisplay:10.37,2013-01-04 14:46:00,
2013-01-04 08:51:00,38.8,32.2,30.42,ENE,68,13.8,25.3,77,0.00,CLR,,0.00,WeatherDisplay:10.37,2013-01-04 14:51:00,
2013-01-04 08:56:00,39.0,32.1,30.42,ENE,68,13.8,19.3,76,0.00,CLR,,0.00,WeatherDisplay:10.37,2013-01-04 14:56:00,
2013-01-04 09:01:00,39.2,32.3,30.42,ENE,68,8.1,15.8,76,0.00,CLR,,0.00,WeatherDisplay:10.37,2013-01-04 15:01:00,
2013-01-04 09:06:00,39.4,32.1,30.42,NE,45,10.4,20.3,75,0.00,CLR,,0.00,WeatherDisplay:10.37,2013-01-04 15:06:00,
2013-01-04 09:11:00,39.7,32.5,30.42,ENE,68,13.8,22.8,75,0.00,CLR,,0.00,WeatherDisplay:10.37,2013-01-04 15:11:00,
2013-01-04 09:16:00,39.9,32.3,30.42,ENE,68,15.0,28.9,74,0.00,CLR,,0.00,WeatherDisplay:10.37,2013-01-04 15:16:00,
2013-01-04 09:21:00,40.6,32.7,30.43,ENE,68,13.8,26.5,73,0.00,CLR,,0.00,WeatherDisplay:10.37,2013-01-04 15:21:00,
2013-01-04 09:27:00,40.8,32.8,30.43,NE,45,9.3,18.4,73,0.00,CLR,,0.00,WeatherDisplay:10.37,2013-01-04 15:27:00,
2013-01-04 09:32:00,41.7,33.4,30.43,ENE,68,13.8,26.2,72,0.00,CLR,,0.00,WeatherDisplay:10.37,2013-01-04 15:32:00,
2013-01-04 09:37:00,42.1,33.7,30.43,ENE,68,17.3,33.2,72,0.00,,,0.00,WeatherDisplay:10.37,2013-01-04 15:37:00,
2013-01-04 09:42:00,42.4,33.7,30.43,ENE,68,15.0,29.8,71,0.00,,,0.00,WeatherDisplay:10.37,2013-01-04 15:42:00,
2013-01-04 09:47:00,43.0,33.9,30.43,ENE,68,11.5,19.2,70,0.00,CLR,,0.00,WeatherDisplay:10.37,2013-01-04 15:47:00,
2013-01-04 09:52:00,43.3,34.2,30.43,ENE,68,13.8,27.2,70,0.00,CLR,,0.00,WeatherDisplay:10.37,2013-01-04 15:52:00,
2013-01-04 09:57:00,43.7,34.6,30.43,East,90,12.7,24.5,70,0.00,CLR,,0.00,WeatherDisplay:10.37,2013-01-04 15:57:00,
2013-01-04 10:02:00,44.2,34.7,30.43,ENE,68,5.8,8.8,69,0.00,CLR,,0.00,WeatherDisplay:10.37,2013-01-04 16:02:00,
2013-01-04 10:07:00,44.6,34.7,30.43,ENE,68,11.9,23.7,68,0.00,CLR,,0.00,WeatherDisplay:10.37,2013-01-04 16:07:00,
2013-01-04 10:12:00,44.8,34.9,30.42,ENE,68,5.8,10.5,68,0.00,CLR,,0.00,WeatherDisplay:10.37,2013-01-04 16:12:00,
2013-01-04 10:17:00,45.1,34.8,30.42,ENE,68,16.1,31.5,67,0.00,,,0.00,WeatherDisplay:10.37,2013-01-04 16:17:00,
2013-01-04 10:22:00,45.7,35.0,30.42,ENE,68,12.7,24.5,66,0.00,CLR,,0.00,WeatherDisplay:10.37,2013-01-04 16:22:00,
2013-01-04 10:27:00,46.0,34.9,30.42,ESE,112,4.6,9.6,65,0.00,CLR,,0.00,WeatherDisplay:10.37,2013-01-04 16:27:00,
2013-01-04 10:32:00,46.6,35.4,30.42,ENE,68,8.4,15.4,65,0.00,CLR,,0.00,WeatherDisplay:10.37,2013-01-04 16:32:00,
2013-01-04 10:37:00,46.8,35.2,30.42,ENE,68,15.0,28.9,64,0.00,,,0.00,WeatherDisplay:10.37,2013-01-04 16:37:00,
2013-01-04 10:42:00,46.9,35.0,30.41,ENE,68,10.4,20.1,63,0.00,CLR,,0.00,WeatherDisplay:10.37,2013-01-04 16:42:00,
2013-01-04 10:47:00,47.5,35.1,30.41,ENE,68,12.7,25.0,62,0.00,CLR,,0.00,WeatherDisplay:10.37,2013-01-04 16:47:00,
2013-01-04 10:52:00,47.7,34.4,30.41,ENE,68,11.5,22.8,60,0.00,CLR,,0.00,WeatherDisplay:10.37,2013-01-04 16:52:00,
2013-01-04 10:57:00,48.0,35.2,30.41,ENE,68,19.6,38.5,61,0.00,,,0.00,WeatherDisplay:10.37,2013-01-04 16:57:00,
2013-01-04 11:02:00,48.6,35.7,30.41,ENE,68,8.1,16.5,61,0.00,CLR,,0.00,WeatherDisplay:10.37,2013-01-04 17:02:00,
2013-01-04 11:07:00,48.9,35.2,30.41,ENE,68,9.7,19.3,59,0.00,CLR,,0.00,WeatherDisplay:10.37,2013-01-04 17:07:00,
2013-01-04 11:12:00,49.1,34.5,30.40,ENE,68,8.1,16.6,57,0.00,CLR,,0.00,WeatherDisplay:10.37,2013-01-04 17:12:00,
2013-01-04 11:17:00,49.3,34.2,30.40,ENE,68,15.0,25.4,56,0.00,CLR,,0.00,WeatherDisplay:10.37,2013-01-04 17:17:00,
2013-01-04 11:22:00,49.3,33.3,30.40,ENE,68,18.4,35.5,54,0.00,,,0.00,WeatherDisplay:10.37,2013-01-04 17:22:00,
2013-01-04 11:27:00,49.3,33.3,30.40,ENE,68,13.8,27.2,54,0.00,CLR,,0.00,WeatherDisplay:10.37,2013-01-04 17:27:00,
2013-01-04 11:32:00,49.6,34.1,30.40,NNE,22,8.1,13.9,55,0.00,CLR,,0.00,WeatherDisplay:10.37,2013-01-04 17:32:00,
2013-01-04 11:37:00,49.8,34.3,30.40,ENE,68,5.8,10.5,55,0.00,CLR,,0.00,WeatherDisplay:10.37,2013-01-04 17:37:00,
2013-01-04 11:42:00,49.8,33.8,30.39,ENE,68,15.0,29.8,54,0.00,,,0.00,WeatherDisplay:10.37,2013-01-04 17:42:00,
2013-01-04 11:47:00,50.0,34.0,30.39,ENE,68,13.8,25.8,54,0.00,CLR,,0.00,WeatherDisplay:10.37,2013-01-04 17:47:00,
2013-01-04 11:52:00,50.2,34.2,30.38,ENE,68,15.0,29.8,54,0.00,,,0.00,WeatherDisplay:10.37,2013-01-04 17:52:00,
2013-01-04 11:57:00,50.4,34.3,30.38,ENE,68,4.6,8.8,54,0.00,CLR,,0.00,WeatherDisplay:10.37,2013-01-04 17:57:00,
2013-01-04 12:02:00,50.5,34.5,30.38,ENE,68,13.8,13.8,54,0.00,CLR,,0.00,WeatherDisplay:10.37,2013-01-04 18:02:00,
2013-01-04 12:07:00,50.7,35.1,30.38,ENE,68,6.2,12.3,55,0.00,CLR,,0.00,WeatherDisplay:10.37,2013-01-04 18:07:00,
2013-01-04 12:12:00,51.1,35.5,30.37,ENE,68,10.6,21.0,55,0.00,CLR,,0.00,WeatherDisplay:10.37,2013-01-04 18:12:00,
2013-01-04 12:17:00,51.4,35.3,30.37,ENE,68,8.1,15.8,54,0.00,CLR,,0.00,WeatherDisplay:10.37,2013-01-04 18:17:00,
2013-01-04 12:22:00,51.6,35.5,30.36,ENE,68,6.9,16.2,54,0.00,CLR,,0.00,WeatherDisplay:10.37,2013-01-04 18:22:00,
2013-01-04 12:27:00,51.6,35.0,30.35,ENE,68,12.7,24.5,53,0.00,CLR,,0.00,WeatherDisplay:10.37,2013-01-04 18:27:00,
2013-01-04 12:32:00,51.8,34.7,30.35,ENE,68,13.8,26.3,52,0.00,CLR,,0.00,WeatherDisplay:10.37,2013-01-04 18:32:00,
2013-01-04 12:37:00,52.0,35.4,30.35,ENE,68,9.2,19.3,53,0.00,CLR,,0.00,WeatherDisplay:10.37,2013-01-04 18:37:00,
2013-01-04 12:42:00,52.3,35.7,30.35,ENE,68,11.9,11.9,53,0.00,CLR,,0.00,WeatherDisplay:10.37,2013-01-04 18:42:00,
2013-01-04 12:47:00,52.3,35.2,30.34,NE,45,12.7,14.8,52,0.00,CLR,,0.00,WeatherDisplay:10.37,2013-01-04 18:47:00,
2013-01-04 12:52:00,52.3,35.2,30.34,ENE,68,12.7,22.9,52,0.00,CLR,,0.00,WeatherDisplay:10.37,2013-01-04 18:52:00,
2013-01-04 12:57:00,52.5,35.4,30.34,ENE,68,11.5,22.8,52,0.00,CLR,,0.00,WeatherDisplay:10.37,2013-01-04 18:57:00,
2013-01-04 13:02:00,52.7,35.1,30.34,ENE,68,11.5,22.5,51,0.00,CLR,,0.00,WeatherDisplay:10.37,2013-01-04 19:02:00,
2013-01-04 13:07:00,52.9,35.2,30.33,ENE,68,7.1,14.0,51,0.00,CLR,,0.00,WeatherDisplay:10.37,2013-01-04 19:07:00,
2013-01-04 13:12:00,52.9,35.7,30.33,ENE,68,0.0,0.9,52,0.00,CLR,,0.00,WeatherDisplay:10.37,2013-01-04 19:12:00,
2013-01-04 13:17:00,53.4,35.7,30.33,ENE,68,12.7,25.4,51,0.00,CLR,,0.00,WeatherDisplay:10.37,2013-01-04 19:17:00,
2013-01-04 13:22:00,53.4,35.2,30.33,ENE,68,12.7,24.5,50,0.00,CLR,,0.00,WeatherDisplay:10.37,2013-01-04 19:22:00,
2013-01-04 13:27:00,53.8,35.6,30.33,ENE,68,14.6,18.4,50,0.00,CLR,,0.00,WeatherDisplay:10.37,2013-01-04 19:27:00,
2013-01-04 13:32:00,54.0,35.2,30.33,NE,45,8.1,12.2,49,0.00,CLR,,0.00,WeatherDisplay:10.37,2013-01-04 19:32:00,
2013-01-04 13:37:00,54.1,35.4,30.33,ENE,68,2.3,3.5,49,0.00,CLR,,0.00,WeatherDisplay:10.37,2013-01-04 19:37:00,
2013-01-04 13:42:00,54.1,35.9,30.33,ENE,68,11.5,13.8,50,0.00,CLR,,0.00,WeatherDisplay:10.37,2013-01-04 19:42:00,
2013-01-04 13:47:00,54.3,36.1,30.32,NE,45,12.7,12.7,50,0.00,CLR,,0.00,WeatherDisplay:10.37,2013-01-04 19:47:00,
2013-01-04 13:52:00,54.3,35.5,30.32,East,90,3.5,7.0,49,0.00,CLR,,0.00,WeatherDisplay:10.37,2013-01-04 19:52:00,
2013-01-04 13:57:00,54.5,35.7,30.32,ENE,68,8.1,16.6,49,0.00,CLR,,0.00,WeatherDisplay:10.37,2013-01-04 19:57:00,
2013-01-04 14:02:00,54.5,35.2,30.32,East,90,15.0,27.4,48,0.00,CLR,,0.00,WeatherDisplay:10.37,2013-01-04 20:02:00,
2013-01-04 14:07:00,54.5,34.7,30.32,ENE,68,6.2,12.3,47,0.00,CLR,,0.00,WeatherDisplay:10.37,2013-01-04 20:07:00,
2013-01-04 14:12:00,54.5,34.7,30.32,ENE,68,10.4,21.0,47,0.00,CLR,,0.00,WeatherDisplay:10.37,2013-01-04 20:12:00,
2013-01-04 14:17:00,54.7,34.8,30.31,ENE,68,9.2,16.1,47,0.00,CLR,,0.00,WeatherDisplay:10.37,2013-01-04 20:17:00,
2013-01-04 14:22:00,54.7,35.4,30.31,East,90,5.8,13.5,48,0.00,CLR,,0.00,WeatherDisplay:10.37,2013-01-04 20:22:00,
2013-01-04 14:27:00,54.9,35.5,30.31,ENE,68,9.2,19.3,48,0.00,CLR,,0.00,WeatherDisplay:10.37,2013-01-04 20:27:00,
2013-01-04 14:32:00,54.7,34.8,30.31,ENE,68,13.8,26.3,47,0.00,CLR,,0.00,WeatherDisplay:10.37,2013-01-04 20:32:00,
2013-01-04 14:37:00,54.7,34.8,30.31,ENE,68,3.5,6.1,47,0.00,,,0.00,WeatherDisplay:10.37,2013-01-04 20:37:00,
2013-01-04 14:42:00,54.7,35.4,30.32,ENE,68,12.7,22.2,48,0.00,CLR,,0.00,WeatherDisplay:10.37,2013-01-04 20:42:00,
2013-01-04 14:47:00,54.9,35.5,30.32,ENE,68,10.4,20.1,48,0.00,CLR,,0.00,WeatherDisplay:10.37,2013-01-04 20:47:00,
2013-01-04 14:52:00,54.9,35.0,30.32,ENE,68,10.4,18.4,47,0.00,CLR,,0.00,WeatherDisplay:10.37,2013-01-04 20:52:00,
2013-01-04 14:57:00,54.9,35.5,30.32,ENE,68,10.4,21.7,48,0.00,CLR,,0.00,WeatherDisplay:10.37,2013-01-04 20:57:00,
2013-01-04 15:02:00,55.0,35.7,30.32,East,90,11.5,21.2,48,0.00,CLR,,0.00,WeatherDisplay:10.37,2013-01-04 21:02:00,
2013-01-04 15:07:00,55.2,35.9,30.32,ENE,68,9.2,0.0,48,0.00,CLR,,0.00,WeatherDisplay:10.37,2013-01-04 21:07:00,
2013-01-04 15:12:00,55.2,35.9,30.32,ENE,68,12.7,21.3,48,0.00,CLR,,0.00,WeatherDisplay:10.37,2013-01-04 21:12:00,
2013-01-04 15:17:00,55.0,35.7,30.31,ENE,68,11.5,20.1,48,0.00,CLR,,0.00,WeatherDisplay:10.37,2013-01-04 21:17:00,
2013-01-04 15:22:00,55.0,35.7,30.32,NE,45,4.6,8.8,48,0.00,CLR,,0.00,WeatherDisplay:10.37,2013-01-04 21:22:00,
2013-01-04 15:27:00,55.0,36.2,30.33,NE,45,0.4,0.0,49,0.00,CLR,,0.00,WeatherDisplay:10.37,2013-01-04 21:27:00,
2013-01-04 15:32:00,54.9,36.0,30.33,ENE,68,4.9,9.6,49,0.00,CLR,,0.00,WeatherDisplay:10.37,2013-01-04 21:32:00,
2013-01-04 15:37:00,54.7,35.4,30.33,ENE,68,4.0,7.9,48,0.00,CLR,,0.00,WeatherDisplay:10.37,2013-01-04 21:37:00,
2013-01-04 15:42:00,54.5,35.2,30.32,ENE,68,5.8,10.6,48,0.00,CLR,,0.00,WeatherDisplay:10.37,2013-01-04 21:42:00,
2013-01-04 15:47:00,54.3,35.0,30.32,ENE,68,2.3,2.3,48,0.00,CLR,,0.00,WeatherDisplay:10.37,2013-01-04 21:47:00,
2013-01-04 15:52:00,54.1,35.4,30.32,ENE,68,6.9,6.9,49,0.00,CLR,,0.00,WeatherDisplay:10.37,2013-01-04 21:52:00,
2013-01-04 15:57:00,54.0,35.2,30.33,ENE,68,11.5,20.5,49,0.00,CLR,,0.00,WeatherDisplay:10.37,2013-01-04 21:57:00,
2013-01-04 16:02:00,53.8,35.6,30.33,ENE,68,2.3,2.6,50,0.00,CLR,,0.00,WeatherDisplay:10.37,2013-01-04 22:02:00,
2013-01-04 16:08:00,53.4,35.2,30.33,ENE,68,2.3,2.3,50,0.00,CLR,,0.00,WeatherDisplay:10.37,2013-01-04 22:08:00,
2013-01-04 16:13:00,53.4,35.7,30.33,ENE,68,0.0,0.0,51,0.00,CLR,,0.00,WeatherDisplay:10.37,2013-01-04 22:13:00,
2013-01-04 16:18:00,53.2,35.6,30.33,ENE,68,0.0,0.0,51,0.00,CLR,,0.00,WeatherDisplay:10.37,2013-01-04 22:18:00,
2013-01-04 16:23:00,52.9,35.7,30.33,ENE,68,6.9,8.9,52,0.00,CLR,,0.00,WeatherDisplay:10.37,2013-01-04 22:23:00,
2013-01-04 16:28:00,52.7,35.6,30.33,ENE,68,2.3,2.3,52,0.00,CLR,,0.00,WeatherDisplay:10.37,2013-01-04 22:28:00,
2013-01-04 16:33:00,52.5,35.9,30.33,ENE,68,0.0,0.0,53,0.00,CLR,,0.00,WeatherDisplay:10.37,2013-01-04 22:33:00,
2013-01-04 16:38:00,52.3,36.2,30.34,ENE,68,0.0,0.0,54,0.00,CLR,,0.00,WeatherDisplay:10.37,2013-01-04 22:38:00,
2013-01-04 16:43:00,52.3,36.2,30.34,ENE,68,0.0,0.0,54,0.00,CLR,,0.00,WeatherDisplay:10.37,2013-01-04 22:43:00,
2013-01-04 16:48:00,52.0,36.3,30.34,ENE,68,0.0,0.0,55,0.00,CLR,,0.00,WeatherDisplay:10.37,2013-01-04 22:48:00,
2013-01-04 16:53:00,51.6,36.4,30.34,ENE,68,0.0,0.0,56,0.00,CLR,,0.00,WeatherDisplay:10.37,2013-01-04 22:53:00,
2013-01-04 16:58:00,51.3,36.5,30.35,ENE,68,0.0,0.0,57,0.00,CLR,,0.00,WeatherDisplay:10.37,2013-01-04 22:58:00,
2013-01-04 17:03:00,51.1,36.8,30.35,ENE,68,0.0,0.0,58,0.00,CLR,,0.00,WeatherDisplay:10.37,2013-01-04 23:03:00,
2013-01-04 17:08:00,50.5,37.2,30.35,ENE,68,0.0,0.0,60,0.00,CLR,,0.00,WeatherDisplay:10.37,2013-01-04 23:08:00,
2013-01-04 17:13:00,50.4,37.4,30.35,ENE,68,0.0,0.0,61,0.00,CLR,,0.00,WeatherDisplay:10.37,2013-01-04 23:13:00,
2013-01-04 17:18:00,49.8,37.3,30.35,ENE,68,0.0,0.0,62,0.00,CLR,,0.00,WeatherDisplay:10.37,2013-01-04 23:18:00,
2013-01-04 17:23:00,49.1,37.4,30.35,ENE,68,0.0,0.0,64,0.00,CLR,,0.00,WeatherDisplay:10.37,2013-01-04 23:23:00,
2013-01-04 17:28:00,48.7,37.1,30.35,ENE,68,0.0,0.0,64,0.00,CLR,,0.00,WeatherDisplay:10.37,2013-01-04 23:28:00,
2013-01-04 17:33:00,48.6,36.9,30.35,ENE,68,0.0,0.0,64,0.00,CLR,,0.00,WeatherDisplay:10.37,2013-01-04 23:33:00,
2013-01-04 17:38:00,48.2,37.0,30.35,ENE,68,0.0,0.0,65,0.00,CLR,,0.00,WeatherDisplay:10.37,2013-01-04 23:38:00,
2013-01-04 17:43:00,48.0,36.4,30.35,ENE,68,0.0,0.0,64,0.00,CLR,,0.00,WeatherDisplay:10.37,2013-01-04 23:43:00,
2013-01-04 17:48:00,48.0,36.4,30.35,ENE,68,0.0,0.0,64,0.00,CLR,,0.00,WeatherDisplay:10.37,2013-01-04 23:48:00,
2013-01-04 17:53:00,48.0,36.4,30.35,ENE,68,0.0,0.0,64,0.00,CLR,,0.00,WeatherDisplay:10.37,2013-01-04 23:53:00,
2013-01-04 17:58:00,47.8,36.2,30.35,ENE,68,0.0,0.0,64,0.00,CLR,,0.00,WeatherDisplay:10.37,2013-01-04 23:58:00,
2013-01-04 18:03:00,47.8,36.6,30.36,ENE,68,0.0,0.0,65,0.00,CLR,,0.00,WeatherDisplay:10.37,2013-01-05 00:03:00,
2013-01-04 18:08:00,47.5,36.7,30.36,ENE,68,0.0,0.0,66,0.00,CLR,,0.00,WeatherDisplay:10.37,2013-01-05 00:08:00,
2013-01-04 18:13:00,47.3,36.5,30.37,ENE,68,0.0,0.0,66,0.00,CLR,,0.00,WeatherDisplay:10.37,2013-01-05 00:13:00,
2013-01-04 18:18:00,47.1,36.7,30.37,ENE,68,0.0,0.0,67,0.00,CLR,,0.00,WeatherDisplay:10.37,2013-01-05 00:18:00,
2013-01-04 18:23:00,46.9,37.3,30.37,ENE,68,0.0,0.0,69,0.00,CLR,,0.00,WeatherDisplay:10.37,2013-01-05 00:23:00,
2013-01-04 18:28:00,46.6,37.0,30.37,ENE,68,0.0,0.0,69,0.00,CLR,,0.00,WeatherDisplay:10.37,2013-01-05 00:28:00,
2013-01-04 18:33:00,46.2,36.6,30.37,ENE,68,0.0,0.0,69,0.00,CLR,,0.00,WeatherDisplay:10.37,2013-01-05 00:33:00,
2013-01-04 18:38:00,46.0,36.8,30.37,ENE,68,0.0,0.0,70,0.00,CLR,,0.00,WeatherDisplay:10.37,2013-01-05 00:38:00,
2013-01-04 18:43:00,45.7,36.1,30.37,ENE,68,0.0,0.0,69,0.00,CLR,,0.00,WeatherDisplay:10.37,2013-01-05 00:43:00,
2013-01-04 18:48:00,45.5,35.9,30.37,ENE,68,0.0,0.0,69,0.00,CLR,,0.00,WeatherDisplay:10.37,2013-01-05 00:48:00,
2013-01-04 18:53:00,45.1,36.3,30.37,ENE,68,0.0,0.0,71,0.00,CLR,,0.00,WeatherDisplay:10.37,2013-01-05 00:53:00,
2013-01-04 18:58:00,44.8,35.9,30.37,ENE,68,0.0,0.0,71,0.00,CLR,,0.00,WeatherDisplay:10.37,2013-01-05 00:58:00,
2013-01-04 19:03:00,44.8,35.9,30.37,ENE,68,0.0,0.0,71,0.00,CLR,,0.00,WeatherDisplay:10.37,2013-01-05 01:03:00,
2013-01-04 19:08:00,44.4,36.0,30.37,ENE,68,0.0,0.0,72,0.00,CLR,,0.00,WeatherDisplay:10.37,2013-01-05 01:08:00,
2013-01-04 19:13:00,44.4,36.0,30.38,ENE,68,0.0,0.0,72,0.00,CLR,,0.00,WeatherDisplay:10.37,2013-01-05 01:13:00,
2013-01-04 19:18:00,44.4,36.0,30.38,ENE,68,0.0,0.0,72,0.00,CLR,,0.00,WeatherDisplay:10.37,2013-01-05 01:18:00,
2013-01-04 19:23:00,44.4,36.3,30.38,ENE,68,0.0,0.0,73,0.00,CLR,,0.00,WeatherDisplay:10.37,2013-01-05 01:23:00,
2013-01-04 19:28:00,44.2,36.5,30.38,ENE,68,0.0,0.0,74,0.00,CLR,,0.00,WeatherDisplay:10.37,2013-01-05 01:28:00,
2013-01-04 19:33:00,43.9,36.1,30.38,ENE,68,0.0,0.0,74,0.00,CLR,,0.00,WeatherDisplay:10.37,2013-01-05 01:33:00,
2013-01-04 19:38:00,43.7,36.0,30.38,ENE,68,0.0,0.0,74,0.00,CLR,,0.00,WeatherDisplay:10.37,2013-01-05 01:38:00,
2013-01-04 19:43:00,43.5,35.8,30.38,ENE,68,0.0,0.0,74,0.00,CLR,,0.00,WeatherDisplay:10.37,2013-01-05 01:43:00,
2013-01-04 19:48:00,43.3,35.9,30.38,ENE,68,0.0,0.0,75,0.00,CLR,,0.00,WeatherDisplay:10.37,2013-01-05 01:48:00,
2013-01-04 19:53:00,43.3,36.3,30.38,ENE,68,0.0,0.0,76,0.00,CLR,,0.00,WeatherDisplay:10.37,2013-01-05 01:53:00,
2013-01-04 19:58:00,43.0,36.3,30.37,ENE,68,0.0,0.0,77,0.00,CLR,,0.00,WeatherDisplay:10.37,2013-01-05 01:58:00,
2013-01-04 20:03:00,42.6,36.2,30.38,ENE,68,0.0,0.0,78,0.00,CLR,,0.00,WeatherDisplay:10.37,2013-01-05 02:03:00,
2013-01-04 20:08:00,42.4,36.1,30.38,ENE,68,0.0,0.0,78,0.00,CLR,,0.00,WeatherDisplay:10.37,2013-01-05 02:08:00,
2013-01-04 20:13:00,42.4,36.1,30.37,ENE,68,0.0,0.0,78,0.00,CLR,,0.00,WeatherDisplay:10.37,2013-01-05 02:13:00,
2013-01-04 20:18:00,42.4,36.4,30.37,ENE,68,0.0,0.0,79,0.00,CLR,,0.00,WeatherDisplay:10.37,2013-01-05 02:18:00,
2013-01-04 20:23:00,42.4,36.1,30.37,ENE,68,0.0,0.0,78,0.00,CLR,,0.00,WeatherDisplay:10.37,2013-01-05 02:23:00,
2013-01-04 20:28:00,42.6,36.2,30.37,ENE,68,0.0,0.0,78,0.00,CLR,,0.00,WeatherDisplay:10.37,2013-01-05 02:28:00,
2013-01-04 20:33:00,42.6,36.2,30.38,ENE,68,0.0,0.0,78,0.00,CLR,,0.00,WeatherDisplay:10.37,2013-01-05 02:33:00,
2013-01-04 20:38:00,42.6,36.2,30.38,ENE,68,0.0,0.0,78,0.00,CLR,,0.00,WeatherDisplay:10.37,2013-01-05 02:38:00,
2013-01-04 20:43:00,42.6,36.6,30.38,ENE,68,0.0,0.0,79,0.00,CLR,,0.00,WeatherDisplay:10.37,2013-01-05 02:43:00,
2013-01-04 20:48:00,42.6,36.6,30.38,ENE,68,0.0,0.0,79,0.00,CLR,,0.00,WeatherDisplay:10.37,2013-01-05 02:48:00,
2013-01-04 20:53:00,42.6,36.6,30.39,ENE,68,0.0,0.0,79,0.00,CLR,,0.00,WeatherDisplay:10.37,2013-01-05 02:53:00,
2013-01-04 20:58:00,42.6,36.6,30.38,ENE,68,0.0,0.0,79,0.00,CLR,,0.00,WeatherDisplay:10.37,2013-01-05 02:58:00,
2013-01-04 21:03:00,42.6,36.6,30.38,ENE,68,0.0,0.0,79,0.00,CLR,,0.00,WeatherDisplay:10.37,2013-01-05 03:03:00,
2013-01-04 21:08:00,42.6,36.6,30.38,ENE,68,0.0,0.0,79,0.00,CLR,,0.00,WeatherDisplay:10.37,2013-01-05 03:08:00,
2013-01-04 21:13:00,42.6,36.6,30.38,ENE,68,0.0,0.0,79,0.00,CLR,,0.00,WeatherDisplay:10.37,2013-01-05 03:13:00,
2013-01-04 21:18:00,42.4,36.7,30.38,ENE,68,0.0,0.0,80,0.00,CLR,,0.00,WeatherDisplay:10.37,2013-01-05 03:18:00,
2013-01-04 21:23:00,42.4,36.7,30.38,ENE,68,0.0,0.0,80,0.00,CLR,,0.00,WeatherDisplay:10.37,2013-01-05 03:23:00,
2013-01-04 21:28:00,41.9,35.9,30.38,ENE,68,0.0,0.0,79,0.00,CLR,,0.00,WeatherDisplay:10.37,2013-01-05 03:28:00,
2013-01-04 21:33:00,41.9,35.9,30.37,ENE,68,0.0,0.0,79,0.00,CLR,,0.00,WeatherDisplay:10.37,2013-01-05 03:33:00,
2013-01-04 21:38:00,41.9,35.9,30.37,ENE,68,0.0,0.0,79,0.00,CLR,,0.00,WeatherDisplay:10.37,2013-01-05 03:38:00,
2013-01-04 21:43:00,42.1,36.0,30.37,ENE,68,0.0,0.0,79,0.00,CLR,,0.00,WeatherDisplay:10.37,2013-01-05 03:43:00,
2013-01-04 21:48:00,41.9,35.9,30.37,ENE,68,0.0,0.0,79,0.00,CLR,,0.00,WeatherDisplay:10.37,2013-01-05 03:48:00,
2013-01-04 21:53:00,41.9,35.9,30.37,ENE,68,0.0,0.0,79,0.00,CLR,,0.00,WeatherDisplay:10.37,2013-01-05 03:53:00,
2013-01-04 21:58:00,41.9,36.2,30.37,ENE,68,0.0,0.0,80,0.00,CLR,,0.00,WeatherDisplay:10.37,2013-01-05 03:58:00,
2013-01-04 22:03:00,41.7,36.0,30.36,ENE,68,0.0,0.0,80,0.00,CLR,,0.00,WeatherDisplay:10.37,2013-01-05 04:03:00,
2013-01-04 22:08:00,41.7,36.0,30.36,ENE,68,0.0,0.0,80,0.00,CLR,,0.00,WeatherDisplay:10.37,2013-01-05 04:08:00,
2013-01-04 22:13:00,41.5,35.8,30.36,ENE,68,0.0,0.0,80,0.00,CLR,,0.00,WeatherDisplay:10.37,2013-01-05 04:13:00,
2013-01-04 22:18:00,41.4,36.0,30.36,ENE,68,0.0,0.0,81,0.00,CLR,,0.00,WeatherDisplay:10.37,2013-01-05 04:18:00,
2013-01-04 22:23:00,41.2,35.8,30.36,ENE,68,0.0,0.0,81,0.00,CLR,,0.00,WeatherDisplay:10.37,2013-01-05 04:23:00,
2013-01-04 22:28:00,41.2,36.1,30.36,ENE,68,0.0,0.0,82,0.00,CLR,,0.00,WeatherDisplay:10.37,2013-01-05 04:28:00,
2013-01-04 22:33:00,41.2,36.1,30.36,ENE,68,0.0,0.0,82,0.00,CLR,,0.00,WeatherDisplay:10.37,2013-01-05 04:33:00,
2013-01-04 22:38:00,41.2,36.1,30.36,ENE,68,0.0,0.0,82,0.00,CLR,,0.00,WeatherDisplay:10.37,2013-01-05 04:38:00,
2013-01-04 22:43:00,41.2,36.1,30.36,ENE,68,0.0,0.0,82,0.00,CLR,,0.00,WeatherDisplay:10.37,2013-01-05 04:43:00,
2013-01-04 22:48:00,41.2,36.1,30.36,ENE,68,0.0,0.0,82,0.00,CLR,,0.00,WeatherDisplay:10.37,2013-01-05 04:48:00,
2013-01-04 22:54:00,41.2,35.8,30.36,ENE,68,1.3,2.6,81,0.00,CLR,,0.00,WeatherDisplay:10.37,2013-01-05 04:54:00,
2013-01-04 22:59:00,41.5,35.8,30.35,ENE,68,0.0,0.0,80,0.00,CLR,,0.00,WeatherDisplay:10.37,2013-01-05 04:59:00,
2013-01-04 23:00:00,41.5,35.8,30.35,ENE,68,0.0,0.0,80,0.00,CLR,,0.00,WeatherDisplay:10.37,2013-01-05 05:00:00,
2013-01-04 23:02:00,41.5,35.8,30.35,ENE,68,0.0,0.0,80,0.00,CLR,,0.00,WeatherDisplay:10.37,2013-01-05 05:02:00,
2013-01-04 23:05:00,41.7,36.0,30.36,ENE,68,0.0,0.0,80,0.00,CLR,,0.00,WeatherDisplay:10.37,2013-01-05 05:05:00,
2013-01-04 23:10:00,41.7,35.7,30.35,ENE,68,1.1,1.6,79,0.00,CLR,,0.00,WeatherDisplay:10.37,2013-01-05 05:10:00,
2013-01-04 23:15:00,41.7,35.7,30.36,ENE,68,0.0,0.0,79,0.00,CLR,,0.00,WeatherDisplay:10.37,2013-01-05 05:15:00,
2013-01-04 23:20:00,41.7,35.7,30.35,ENE,68,0.0,0.0,79,0.00,CLR,,0.00,WeatherDisplay:10.37,2013-01-05 05:20:00,
2013-01-04 23:25:00,41.7,35.4,30.35,ENE,68,0.0,0.0,78,0.00,CLR,,0.00,WeatherDisplay:10.37,2013-01-05 05:25:00,
2013-01-04 23:30:00,41.9,35.5,30.36,ENE,68,0.0,0.0,78,0.00,CLR,,0.00,WeatherDisplay:10.37,2013-01-05 05:30:00,
2013-01-04 23:35:00,41.9,35.2,30.35,ENE,68,0.0,0.0,77,0.00,CLR,,0.00,WeatherDisplay:10.37,2013-01-05 05:35:00,
2013-01-04 23:40:00,41.9,35.2,30.35,ENE,68,0.0,0.0,77,0.00,CLR,,0.00,WeatherDisplay:10.37,2013-01-05 05:40:00,
2013-01-04 23:45:00,41.9,35.2,30.35,ENE,68,0.0,0.0,77,0.00,CLR,,0.00,WeatherDisplay:10.37,2013-01-05 05:45:00,
2013-01-04 23:50:00,41.7,35.0,30.34,ENE,68,3.5,0.0,77,0.00,CLR,,0.00,WeatherDisplay:10.37,2013-01-05 05:50:00,
2013-01-04 23:55:00,41.7,35.0,30.34,ENE,68,3.5,5.2,77,0.00,CLR,,0.00,WeatherDisplay:10.37,2013-01-05 05:55:00,